QPF
0.02 0.02 0.01 0.01 0.00 0.00 0.00 0.00 0.00 0.00 0.00 0.00 0.01 0.01 0.01 0.00 0.01 0.02 0.02 0.00 0.00 0.00 0.01 0.00 0.00 0.00 0.00 0.00 0.00 0.00 0.00 0.00 0.00 0.00 0.00 0.00 0.00 0.00 0.00 0.01 0.01 0.02 0.04
0.01 0.01 0.01 0.01 0.01 0.00 0.00 0.00 0.00 0.00 0.00 0.01 0.02 0.01 0.01 0.00 0.00 0.01 0.02 0.00 0.00 0.00 0.00 0.00 0.00 0.00 0.01 0.00 0.00 0.00 0.00 0.00 0.00 0.00 0.00 0.00 0.00 0.00 0.01 0.02 0.03 0.04 0.04
0.00 0.00 0.00 0.00 0.00 0.01 0.01 0.01 0.01 0.01 0.02 0.03 0.04 0.04 0.03 0.01 0.00 0.02 0.03 0.01 0.00 0.00 0.00 0.00 0.00 0.00 0.00 0.00 0.00 0.00 0.00 0.00 0.00 0.00 0.00 0.00 0.00 0.00 0.01 0.02 0.03 0.05 0.07
0.00 0.00 0.01 0.01 0.01 0.01 0.01 0.02 0.03 0.03 0.03 0.04 0.05 0.07 0.07 0.05 0.03 0.03 0.04 0.03 0.02 0.01 0.00 0.00 0.00 0.00 0.00 0.00 0.00 0.00 0.00 0.00 0.00 0.00 0.00 0.00 0.00 0.00 0.01 0.02 0.04 0.06 0.09
0.00 0.00 0.01 0.02 0.02 0.02 0.03 0.04 0.05 0.07 0.07 0.06 0.06 0.08 0.10 0.10 0.11 0.09 0.09 0.08 0.06 0.03 0.01 0.01 0.00 0.00 0.00 0.00 0.00 0.00 0.00 0.00 0.00 0.00 0.00 0.00 0.00 0.00 0.01 0.02 0.02 0.04 0.08
0.00 0.00 0.01 0.01 0.01 0.03 0.04 0.06 0.07 0.09 0.11 0.11 0.13 0.13 0.16 0.18 0.18 0.15 0.14 0.14 0.11 0.06 0.04 0.02 0.00 0.00 0.00 0.00 0.00 0.00 0.00 0.00 0.00 0.00 0.00 0.00 0.00 0.00 0.01 0.01 0.02 0.03 0.05
0.00 0.00 0.00 0.00 0.01 0.01 0.02 0.04 0.06 0.07 0.08 0.10 0.12 0.13 0.15 0.19 0.19 0.14 0.15 0.19 0.22 0.19 0.13 0.07 0.02 0.00 0.00 0.00 0.00 0.00 0.00 0.00 0.00 0.00 0.00 0.00 0.00 0.01 0.01 0.02 0.02 0.03 0.04
0.00 0.00 0.00 0.00 0.00 0.00 0.00 0.01 0.02 0.03 0.03 0.03 0.07 0.09 0.10 0.13 0.12 0.11 0.12 0.17 0.22 0.21 0.15 0.11 0.06 0.02 0.01 0.00 0.00 0.00 0.00 0.00 0.00 0.00 0.00 0.00 0.00 0.01 0.01 0.03 0.03 0.03 0.04
0.00 0.00 0.00 0.00 0.00 0.00 0.00 0.00 0.00 0.01 0.01 0.01 0.02 0.03 0.04 0.06 0.09 0.06 0.07 0.10 0.12 0.11 0.09 0.07 0.05 0.03 0.01 0.00 0.00 0.00 0.00 0.00 0.00 0.00 0.00 0.00 0.00 0.01 0.02 0.04 0.05 0.05 0.05
0.00 0.00 0.00 0.00 0.00 0.00 0.00 0.00 0.00 0.00 0.00 0.00 0.00 0.00 0.01 0.01 0.02 0.02 0.02 0.03 0.03 0.02 0.02 0.01 0.01 0.01 0.00 0.00 0.00 0.00 0.00 0.00 0.00 0.00 0.00 0.00 0.00 0.01 0.02 0.04 0.06 0.06 0.06
0.00 0.00 0.00 0.00 0.00 0.00 0.00 0.00 0.00 0.00 0.00 0.00 0.00 0.00 0.00 0.00 0.00 0.00 0.00 0.00 0.00 0.00 0.00 0.00 0.00 0.00 0.00 0.00 0.00 0.00 0.00 0.00 0.00 0.00 0.00 0.00 0.00 0.00 0.01 0.01 0.03 0.06 0.08
0.00 0.00 0.00 0.00 0.00 0.00 0.00 0.00 0.00 0.00 0.00 0.00 0.00 0.00 0.00 0.00 0.00 0.00 0.00 0.00 0.00 0.00 0.00 0.00 0.00 0.00 0.00 0.00 0.00 0.00 0.00 0.00 0.00 0.00 0.00 0.00 0.00 0.00 0.00 0.00 0.01 0.02 0.05
0.00 0.00 0.00 0.00 0.00 0.00 0.00 0.00 0.00 0.00 0.00 0.00 0.00 0.00 0.00 0.00 0.00 0.00 0.00 0.00 0.00 0.00 0.00 0.00 0.00 0.00 0.00 0.00 0.00 0.00 0.00 0.00 0.00 0.00 0.00 0.00 0.00 0.00 0.00 0.00 0.00 0.00 0.02
0.00 0.00 0.00 0.00 0.00 0.00 0.00 0.00 0.00 0.00 0.00 0.00 0.00 0.00 0.00 0.00 0.00 0.00 0.00 0.00 0.00 0.00 0.00 0.00 0.00 0.00 0.00 0.00 0.00 0.00 0.00 0.00 0.00 0.00 0.00 0.00 0.00 0.00 0.00 0.00 0.00 0.00 0.00
0.00 0.00 0.00 0.00 0.00 0.00 0.00 0.00 0.00 0.00 0.00 0.00 0.00 0.00 0.00 0.00 0.00 0.00 0.00 0.00 0.00 0.00 0.00 0.00 0.00 0.00 0.00 0.00 0.00 0.00 0.00 0.00 0.00 0.00 0.00 0.00 0.00 0.00 0.00 0.00 0.00 0.00 0.00
0.01 0.01 0.00 0.00 0.00 0.00 0.00 0.00 0.00 0.00 0.00 0.00 0.00 0.00 0.00 0.00 0.00 0.00 0.00 0.00 0.00 0.00 0.00 0.00 0.00 0.00 0.00 0.00 0.00 0.00 0.00 0.00 0.00 0.00 0.00 0.00 0.00 0.00 0.00 0.00 0.00 0.00 0.00
0.02 0.02 0.01 0.01 0.00 0.00 0.00 0.00 0.00 0.00 0.00 0.00 0.00 0.00 0.00 0.00 0.00 0.00 0.00 0.00 0.00 0.00 0.00 0.00 0.00 0.00 0.00 0.00 0.00 0.00 0.00 0.00 0.00 0.00 0.00 0.00 0.00 0.00 0.00 0.00 0.00 0.00 0.00
0.04 0.03 0.02 0.02 0.01 0.00 0.00 0.00 0.00 0.00 0.00 0.00 0.00 0.00 0.00 0.00 0.00 0.00 0.00 0.01 0.01 0.01 0.01 0.00 0.00 0.00 0.00 0.00 0.00 0.00 0.00 0.00 0.00 0.00 0.00 0.00 0.00 0.00 0.00 0.00 0.00 0.00 0.00
0.06 0.05 0.04 0.03 0.02 0.01 0.00 0.00 0.00 0.00 0.00 0.00 0.00 0.00 0.00 0.00 0.00 0.00 0.00 0.01 0.01 0.01 0.02 0.02 0.01 0.01 0.01 0.00 0.00 0.00 0.00 0.00 0.00 0.00 0.00 0.00 0.00 0.00 0.00 0.00 0.00 0.00 0.00
0.12 0.10 0.09 0.06 0.04 0.01 0.00 0.00 0.00 0.00 0.00 0.00 0.00 0.00 0.00 0.00 0.00 0.00 0.00 0.00 0.01 0.01 0.02 0.02 0.02 0.03 0.02 0.01 0.00 0.00 0.00 0.00 0.00 0.00 0.00 0.00 0.00 0.00 0.00 0.00 0.00 0.00 0.00
0.20 0.17 0.14 0.10 0.06 0.03 0.01 0.00 0.00 0.00 0.00 0.00 0.00 0.00 0.00 0.01 0.01 0.01 0.01 0.00 0.00 0.00 0.01 0.01 0.01 0.01 0.01 0.00 0.00 0.00 0.00 0.00 0.00 0.00 0.00 0.00 0.00 0.00 0.00 0.00 0.00 0.00 0.00
0.25 0.22 0.17 0.12 0.07 0.03 0.01 0.00 0.00 0.00 0.00 0.00 0.00 0.00 0.00 0.01 0.01 0.02 0.02 0.01 0.00 0.00 0.00 0.01 0.01 0.00 0.00 0.00 0.00 0.00 0.00 0.00 0.00 0.00 0.00 0.00 0.00 0.00 0.00 0.00 0.00 0.00 0.00
0.17 0.13 0.10 0.08 0.05 0.03 0.01 0.00 0.00 0.00 0.00 0.00 0.00 0.00 0.00 0.00 0.00 0.00 0.01 0.00 0.00 0.00 0.00 0.00 0.01 0.01 0.01 0.00 0.00 0.00 0.00 0.00 0.00 0.00 0.00 0.00 0.00 0.00 0.00 0.00 0.00 0.00 0.00
0.09 0.05 0.03 0.02 0.01 0.01 0.00 0.00 0.00 0.00 0.00 0.00 0.00 0.00 0.00 0.00 0.00 0.00 0.00 0.00 0.00 0.00 0.00 0.00 0.00 0.00 0.00 0.00 0.00 0.00 0.00 0.00 0.00 0.00 0.00 0.00 0.00 0.00 0.00 0.00 0.00 0.00 0.00
0.04 0.02 0.01 0.01 0.00 0.00 0.00 0.00 0.00 0.00 0.00 0.00 0.00 0.00 0.00 0.00 0.00 0.00 0.00 0.00 0.00 0.00 0.00 0.00 0.00 0.00 0.00 0.00 0.00 0.00 0.00 0.00 0.00 0.00 0.00 0.00 0.00 0.00 0.00 0.00 0.00 0.00 0.00
0.02 0.01 0.00 0.00 0.00 0.00 0.00 0.00 0.00 0.00 0.00 0.00 0.00 0.00 0.00 0.00 0.00 0.00 0.00 0.00 0.00 0.00 0.00 0.00 0.00 0.00 0.00 0.00 0.00 0.00 0.00 0.00 0.00 0.00 0.00 0.00 0.00 0.00 0.00 0.00 0.00 0.00 0.00
MSLP
1009.94 1009.99 1010.03 1010.05 1010.09 1010.14 1010.22 1010.30 1010.38 1010.44 1010.48 1010.49 1010.50 1010.51 1010.56 1010.65 1010.81 1011.03 1011.32 1011.64 1011.97 1012.30 1012.61 1012.88 1013.12 1013.33 1013.52 1013.70 1013.87 1014.06 1014.23 1014.41 1014.57 1014.71 1014.81 1014.88 1014.91 1014.90 1014.85 1014.78 1014.71 1014.65 1014.64
1009.77 1009.79 1009.79 1009.80 1009.82 1009.87 1009.93 1010.01 1010.09 1010.16 1010.21 1010.23 1010.24 1010.25 1010.29 1010.38 1010.51 1010.72 1010.99 1011.29 1011.63 1011.96 1012.29 1012.59 1012.85 1013.08 1013.28 1013.47 1013.64 1013.81 1013.97 1014.13 1014.29 1014.43 1014.55 1014.64 1014.69 1014.70 1014.68 1014.62 1014.55 1014.50 1014.48
1009.63 1009.63 1009.62 1009.61 1009.63 1009.67 1009.74 1009.83 1009.92 1009.99 1010.05 1010.08 1010.10 1010.11 1010.13 1010.18 1010.28 1010.44 1010.65 1010.91 1011.21 1011.54 1011.86 1012.18 1012.47 1012.73 1012.97 1013.17 1013.36 1013.53 1013.69 1013.85 1014.00 1014.14 1014.27 1014.37 1014.45 1014.48 1014.48 1014.45 1014.41 1014.37 1014.36
1009.52 1009.50 1009.48 1009.48 1009.51 1009.55 1009.63 1009.72 1009.82 1009.91 1009.98 1010.03 1010.05 1010.05 1010.05 1010.07 1010.11 1010.19 1010.33 1010.52 1010.77 1011.05 1011.36 1011.69 1012.01 1012.31 1012.59 1012.84 1013.05 1013.24 1013.41 1013.57 1013.72 1013.86 1013.99 1014.10 1014.19 1014.26 1014.28 1014.28 1014.26 1014.25 1014.26
1009.40 1009.37 1009.37 1009.38 1009.41 1009.48 1009.56 1009.66 1009.77 1009.88 1009.96 1010.02 1010.05 1010.06 1010.04 1010.02 1010.00 1010.01 1010.07 1010.18 1010.35 1010.58 1010.87 1011.19 1011.53 1011.87 1012.20 1012.50 1012.75 1012.97 1013.16 1013.32 1013.47 1013.60 1013.73 1013.85 1013.95 1014.03 1014.08 1014.10 1014.11 1014.13 1014.17
1009.24 1009.22 1009.23 1009.27 1009.33 1009.41 1009.50 1009.61 1009.73 1009.84 1009.94 1010.02 1010.07 1010.08 1010.07 1010.02 1009.97 1009.92 1009.90 1009.93 1010.03 1010.21 1010.46 1010.77 1011.12 1011.50 1011.87 1012.21 1012.51 1012.76 1012.96 1013.13 1013.27 1013.39 1013.51 1013.62 1013.72 1013.81 1013.88 1013.93 1013.97 1014.01 1014.07
1009.04 1009.04 1009.07 1009.14 1009.22 1009.32 1009.43 1009.54 1009.66 1009.78 1009.89 1009.99 1010.07 1010.11 1010.11 1010.07 1010.01 1009.93 1009.87 1009.84 1009.89 1010.01 1010.22 1010.51 1010.87 1011.26 1011.66 1012.03 1012.36 1012.63 1012.84 1013.00 1013.13 1013.24 1013.33 1013.43 1013.52 1013.61 1013.68 1013.75 1013.80 1013.86 1013.94
1008.82 1008.82 1008.88 1008.99 1009.10 1009.22 1009.34 1009.45 1009.56 1009.68 1009.80 1009.92 1010.03 1010.11 1010.16 1010.16 1010.12 1010.05 1009.98 1009.93 1009.94 1010.02 1010.20 1010.47 1010.81 1011.20 1011.60 1011.98 1012.32 1012.59 1012.80 1012.95 1013.05 1013.13 1013.20 1013.27 1013.34 1013.42 1013.49 1013.56 1013.62 1013.69 1013.76
1008.58 1008.60 1008.69 1008.83 1008.98 1009.12 1009.25 1009.35 1009.46 1009.57 1009.69 1009.83 1009.97 1010.10 1010.20 1010.26 1010.28 1010.25 1010.21 1010.17 1010.17 1010.24 1010.39 1010.63 1010.95 1011.31 1011.70 1012.06 1012.38 1012.64 1012.82 1012.94 1013.01 1013.06 1013.09 1013.13 1013.18 1013.24 1013.31 1013.37 1013.43 1013.49 1013.55
1008.37 1008.40 1008.53 1008.71 1008.89 1009.05 1009.18 1009.29 1009.37 1009.47 1009.58 1009.72 1009.89 1010.06 1010.23 1010.36 1010.45 1010.50 1010.51 1010.51 1010.53 1010.59 1010.73 1010.94 1011.21 1011.54 1011.89 1012.22 1012.50 1012.72 1012.87 1012.96 1012.99 1013.00 1013.01 1013.02 1013.04 1013.09 1013.13 1013.19 1013.23 1013.28 1013.33
1008.21 1008.25 1008.41 1008.62 1008.84 1009.03 1009.17 1009.27 1009.34 1009.40 1009.50 1009.63 1009.80 1010.01 1010.23 1010.43 1010.60 1010.72 1010.80 1010.85 1010.90 1010.97 1011.09 1011.27 1011.51 1011.79 1012.08 1012.36 1012.60 1012.78 1012.90 1012.95 1012.96 1012.95 1012.93 1012.92 1012.93 1012.96 1012.99 1013.03 1013.06 1013.09 1013.11
1008.11 1008.16 1008.35 1008.59 1008.84 1009.06 1009.21 1009.31 1009.35 1009.39 1009.45 1009.56 1009.73 1009.94 1010.19 1010.44 1010.67 1010.86 1011.00 1011.11 1011.19 1011.27 1011.38 1011.52 1011.72 1011.94 1012.19 1012.42 1012.62 1012.77 1012.86 1012.91 1012.91 1012.89 1012.86 1012.85 1012.85 1012.87 1012.89 1012.92 1012.93 1012.94 1012.93
1008.08 1008.13 1008.32 1008.59 1008.88 1009.12 1009.29 1009.38 1009.42 1009.43 1009.45 1009.52 1009.66 1009.86 1010.11 1010.39 1010.65 1010.88 1011.07 1011.21 1011.31 1011.40 1011.49 1011.61 1011.76 1011.95 1012.14 1012.34 1012.51 1012.65 1012.75 1012.79 1012.81 1012.81 1012.80 1012.79 1012.80 1012.82 1012.84 1012.86 1012.85 1012.83 1012.80
1008.09 1008.12 1008.32 1008.61 1008.92 1009.19 1009.38 1009.49 1009.51 1009.50 1009.49 1009.52 1009.62 1009.79 1010.01 1010.28 1010.55 1010.79 1010.99 1011.14 1011.25 1011.33 1011.41 1011.50 1011.62 1011.76 1011.93 1012.11 1012.28 1012.43 1012.55 1012.63 1012.68 1012.71 1012.74 1012.76 1012.79 1012.81 1012.83 1012.84 1012.82 1012.78 1012.72
1008.14 1008.15 1008.34 1008.63 1008.96 1009.26 1009.47 1009.59 1009.63 1009.61 1009.57 1009.56 1009.62 1009.74 1009.92 1010.15 1010.39 1010.62 1010.81 1010.95 1011.04 1011.11 1011.16 1011.22 1011.31 1011.43 1011.59 1011.77 1011.95 1012.13 1012.30 1012.43 1012.54 1012.63 1012.69 1012.75 1012.79 1012.82 1012.84 1012.83 1012.80 1012.75 1012.66
1008.23 1008.20 1008.37 1008.66 1009.00 1009.31 1009.56 1009.70 1009.76 1009.74 1009.70 1009.66 1009.68 1009.75 1009.89 1010.07 1010.27 1010.45 1010.60 1010.71 1010.77 1010.80 1010.82 1010.85 1010.92 1011.03 1011.19 1011.38 1011.60 1011.83 1012.04 1012.24 1012.41 1012.55 1012.66 1012.74 1012.79 1012.83 1012.83 1012.81 1012.76 1012.69 1012.59
1008.40 1008.32 1008.45 1008.72 1009.06 1009.39 1009.66 1009.83 1009.92 1009.92 1009.88 1009.84 1009.83 1009.87 1009.96 1010.09 1010.23 1010.36 1010.47 1010.53 1010.54 1010.53 1010.52 1010.52 1010.56 1010.67 1010.83 1011.04 1011.30 1011.57 1011.84 1012.10 1012.32 1012.50 1012.63 1012.72 1012.77 1012.79 1012.77 1012.73 1012.66 1012.56 1012.45
1008.68 1008.55 1008.64 1008.88 1009.20 1009.53 1009.81 1010.02 1010.13 1010.16 1010.15 1010.11 1010.10 1010.12 1010.17 1010.26 1010.35 1010.43 1010.47 1010.48 1010.45 1010.40 1010.34 1010.31 1010.34 1010.43 1010.60 1010.83 1011.12 1011.43 1011.75 1012.04 1012.29 1012.48 1012.62 1012.70 1012.72 1012.70 1012.64 1012.55 1012.45 1012.34 1012.23
1009.11 1008.94 1008.98 1009.18 1009.47 1009.78 1010.07 1010.28 1010.42 1010.49 1010.50 1010.49 1010.48 1010.49 1010.53 1010.58 1010.63 1010.67 1010.66 1010.62 1010.55 1010.45 1010.36 1010.31 1010.31 1010.39 1010.56 1010.80 1011.11 1011.44 1011.77 1012.08 1012.33 1012.52 1012.63 1012.67 1012.64 1012.55 1012.44 1012.31 1012.17 1012.03 1011.91
1009.74 1009.53 1009.52 1009.67 1009.91 1010.19 1010.45 1010.66 1010.81 1010.89 1010.93 1010.94 1010.95 1010.97 1011.00 1011.03 1011.06 1011.06 1011.03 1010.95 1010.83 1010.70 1010.58 1010.50 1010.49 1010.56 1010.72 1010.96 1011.27 1011.60 1011.93 1012.23 1012.47 1012.62 1012.68 1012.65 1012.55 1012.40 1012.22 1012.02 1011.84 1011.67 1011.54
1010.55 1010.31 1010.25 1010.34 1010.52 1010.74 1010.96 1011.14 1011.28 1011.37 1011.42 1011.45 1011.47 1011.51 1011.54 1011.57 1011.59 1011.57 1011.51 1011.41 1011.27 1011.12 1010.98 1010.88 1010.85 1010.91 1011.06 1011.29 1011.58 1011.91 1012.22 1012.49 1012.69 1012.79 1012.79 1012.70 1012.52 1012.29 1012.03 1011.76 1011.53 1011.33 1011.17
1011.51 1011.25 1011.15 1011.17 1011.27 1011.42 1011.57 1011.71 1011.81 1011.88 1011.93 1011.97 1012.01 1012.05 1012.09 1012.13 1012.15 1012.12 1012.06 1011.94 1011.79 1011.63 1011.48 1011.38 1011.34 1011.39 1011.52 1011.74 1012.02 1012.31 1012.60 1012.84 1012.99 1013.05 1012.99 1012.83 1012.58 1012.27 1011.94 1011.61 1011.31 1011.07 1010.87
1012.55 1012.28 1012.13 1012.09 1012.11 1012.17 1012.24 1012.31 1012.36 1012.40 1012.43 1012.46 1012.50 1012.55 1012.61 1012.66 1012.68 1012.66 1012.60 1012.49 1012.35 1012.19 1012.04 1011.93 1011.89 1011.93 1012.06 1012.26 1012.52 1012.79 1013.05 1013.26 1013.38 1013.39 1013.28 1013.07 1012.77 1012.41 1012.01 1011.62 1011.27 1010.96 1010.71
1013.58 1013.31 1013.12 1013.01 1012.95 1012.92 1012.91 1012.89 1012.88 1012.88 1012.88 1012.90 1012.94 1013.00 1013.06 1013.12 1013.15 1013.15 1013.10 1013.01 1012.88 1012.74 1012.60 1012.50 1012.46 1012.50 1012.62 1012.81 1013.04 1013.30 1013.53 1013.71 1013.81 1013.79 1013.66 1013.43 1013.09 1012.69 1012.26 1011.82 1011.41 1011.04 1010.73
1014.53 1014.25 1014.03 1013.86 1013.72 1013.61 1013.52 1013.43 1013.36 1013.31 1013.28 1013.29 1013.32 1013.38 1013.45 1013.52 1013.57 1013.59 1013.56 1013.49 1013.39 1013.27 1013.15 1013.06 1013.03 1013.07 1013.18 1013.35 1013.56 1013.79 1014.01 1014.17 1014.25 1014.23 1014.10 1013.85 1013.51 1013.10 1012.64 1012.17 1011.71 1011.29 1010.90
1015.34 1015.05 1014.81 1014.59 1014.39 1014.21 1014.05 1013.90 1013.78 1013.69 1013.64 1013.63 1013.66 1013.72 1013.80 1013.88 1013.95 1013.99 1013.99 1013.95 1013.87 1013.78 1013.69 1013.62 1013.59 1013.62 1013.72 1013.87 1014.06 1014.26 1014.45 1014.60 1014.67 1014.64 1014.51 1014.28 1013.95 1013.55 1013.09 1012.60 1012.11 1011.64 1011.19
Thickness
5692 5692 5691 5691 5692 5692 5692 5691 5691 5691 5691 5693 5695 5696 5697 5697 5696 5694 5693 5694 5694 5693 5692 5691 5690 5689 5689 5688 5687 5687 5687 5687 5687 5687 5688 5689 5690 5691 5693 5695 5697 5699 5701
5685 5683 5683 5683 5683 5684 5684 5684 5685 5685 5685 5686 5687 5688 5688 5687 5686 5686 5685 5685 5685 5684 5684 5684 5684 5684 5684 5684 5683 5682 5682 5682 5682 5682 5683 5684 5685 5685 5687 5689 5691 5693 5695
5676 5675 5674 5673 5674 5675 5675 5675 5675 5676 5677 5678 5678 5678 5678 5678 5677 5677 5677 5677 5677 5676 5675 5675 5676 5677 5678 5678 5677 5676 5676 5675 5676 5677 5678 5679 5680 5680 5681 5682 5684 5686 5687
5666 5665 5664 5662 5663 5664 5664 5663 5663 5663 5664 5665 5665 5666 5666 5667 5667 5668 5668 5669 5669 5667 5666 5666 5666 5668 5668 5669 5669 5669 5669 5669 5669 5670 5671 5673 5674 5675 5675 5676 5677 5679 5681
5652 5652 5652 5651 5651 5650 5650 5650 5650 5650 5650 5651 5652 5653 5655 5655 5656 5658 5658 5660 5660 5660 5658 5657 5656 5656 5657 5659 5660 5661 5661 5662 5662 5663 5664 5666 5667 5668 5669 5670 5671 5672 5674
5636 5637 5637 5638 5638 5636 5635 5635 5635 5637 5637 5638 5639 5641 5643 5645 5646 5646 5648 5649 5649 5650 5649 5647 5645 5645 5646 5647 5649 5650 5651 5653 5654 5655 5656 5658 5659 5661 5663 5664 5665 5666 5667
5619 5621 5621 5622 5622 5621 5620 5620 5620 5620 5621 5623 5622 5623 5628 5632 5634 5636 5637 5637 5638 5638 5637 5636 5635 5635 5635 5636 5637 5639 5640 5642 5644 5646 5648 5649 5651 5653 5655 5656 5658 5659 5660
5601 5604 5604 5604 5604 5604 5604 5604 5605 5604 5605 5607 5606 5606 5607 5612 5619 5624 5625 5625 5626 5626 5625 5624 5623 5623 5624 5624 5625 5626 5628 5629 5632 5635 5638 5641 5642 5644 5646 5648 5650 5651 5653
5583 5585 5586 5586 5586 5588 5587 5587 5588 5588 5587 5590 5592 5591 5590 5592 5600 5605 5609 5610 5611 5611 5610 5610 5609 5610 5610 5611 5612 5613 5615 5616 5619 5623 5626 5630 5633 5635 5637 5640 5642 5644 5645
5565 5566 5567 5567 5567 5569 5570 5570 5572 5572 5572 5571 5574 5576 5576 5578 5580 5584 5589 5592 5595 5594 5593 5594 5594 5594 5595 5596 5598 5600 5602 5603 5606 5610 5614 5618 5621 5625 5627 5630 5632 5635 5637
5546 5546 5547 5546 5547 5549 5551 5553 5554 5555 5555 5555 5555 5558 5559 5561 5563 5564 5567 5571 5575 5577 5578 5579 5578 5578 5580 5581 5584 5586 5588 5590 5593 5596 5600 5604 5608 5612 5615 5618 5621 5625 5628
5524 5526 5527 5526 5527 5530 5532 5534 5536 5538 5538 5539 5540 5541 5542 5543 5544 5546 5548 5552 5555 5559 5562 5563 5563 5564 5565 5568 5570 5572 5575 5577 5579 5583 5586 5590 5595 5598 5602 5606 5610 5614 5617
5500 5505 5508 5507 5507 5511 5514 5516 5517 5519 5521 5523 5524 5525 5528 5529 5531 5532 5533 5534 5538 5542 5546 5547 5549 5549 5553 5555 5556 5559 5562 5564 5566 5570 5573 5577 5581 5585 5589 5593 5598 5602 5606
5476 5483 5488 5489 5489 5492 5496 5498 5499 5502 5505 5507 5509 5511 5512 5514 5516 5517 5518 5518 5518 5522 5528 5532 5534 5537 5541 5543 5544 5547 5549 5552 5553 5557 5560 5564 5568 5572 5576 5580 5584 5589 5593
5458 5460 5466 5469 5471 5475 5478 5481 5483 5486 5488 5491 5493 5495 5497 5499 5501 5503 5505 5505 5503 5504 5508 5516 5520 5526 5530 5532 5533 5534 5535 5538 5540 5544 5548 5551 5555 5559 5563 5567 5571 5575 5579
5444 5444 5445 5449 5453 5458 5463 5466 5469 5471 5473 5475 5478 5480 5482 5484 5487 5489 5490 5492 5494 5494 5496 5503 5508 5512 5517 5521 5522 5522 5523 5526 5529 5532 5535 5538 5542 5544 5548 5552 5556 5561 5564
5428 5431 5432 5433 5436 5441 5447 5451 5454 5457 5459 5461 5463 5466 5468 5470 5472 5474 5477 5479 5481 5484 5486 5491 5497 5500 5503 5507 5510 5511 5512 5514 5517 5521 5523 5525 5528 5531 5534 5538 5542 5546 5550
5410 5415 5419 5420 5423 5427 5432 5437 5441 5443 5444 5446 5448 5450 5451 5454 5456 5458 5461 5465 5468 5473 5475 5479 5484 5487 5491 5495 5498 5500 5501 5502 5505 5508 5510 5512 5515 5518 5522 5526 5529 5533 5536
5393 5399 5403 5408 5411 5415 5420 5424 5425 5426 5426 5427 5428 5430 5431 5434 5435 5438 5443 5447 5453 5460 5464 5469 5473 5476 5479 5483 5486 5487 5488 5488 5491 5494 5496 5499 5502 5506 5509 5513 5518 5522 5525
5377 5383 5389 5393 5398 5403 5406 5408 5409 5408 5407 5408 5410 5411 5412 5414 5416 5419 5423 5426 5434 5442 5450 5456 5461 5465 5467 5471 5473 5472 5471 5472 5475 5479 5482 5486 5490 5493 5497 5502 5506 5509 5512
5362 5368 5374 5378 5383 5387 5391 5392 5392 5391 5391 5392 5393 5394 5396 5398 5401 5403 5404 5407 5414 5421 5430 5439 5446 5451 5454 5455 5457 5458 5458 5459 5461 5465 5468 5472 5476 5481 5484 5489 5493 5497 5501
5345 5351 5356 5361 5366 5371 5374 5376 5376 5376 5377 5378 5379 5379 5381 5382 5384 5387 5389 5393 5398 5404 5411 5419 5426 5433 5436 5439 5442 5445 5445 5445 5446 5450 5454 5458 5463 5467 5472 5478 5482 5486 5488
5328 5332 5337 5342 5347 5351 5356 5359 5361 5362 5364 5364 5364 5364 5368 5370 5370 5372 5376 5380 5385 5391 5397 5403 5409 5414 5417 5420 5425 5427 5429 5429 5432 5437 5440 5446 5452 5457 5462 5467 5470 5473 5475
5314 5317 5322 5326 5330 5335 5340 5342 5345 5347 5349 5350 5349 5348 5351 5354 5357 5359 5363 5370 5375 5379 5384 5389 5393 5397 5400 5403 5408 5412 5415 5418 5421 5424 5429 5433 5440 5445 5451 5454 5456 5459 5462
5303 5306 5309 5313 5317 5320 5324 5327 5330 5333 5335 5336 5336 5335 5337 5339 5344 5347 5351 5358 5363 5366 5371 5375 5380 5385 5389 5393 5396 5398 5400 5402 5404 5407 5412 5416 5422 5428 5434 5439 5442 5444 5446
5295 5298 5300 5302 5305 5306 5310 5313 5317 5320 5321 5323 5324 5324 5325 5326 5330 5333 5337 5341 5344 5347 5353 5359 5364 5370 5374 5378 5380 5380 5381 5382 5385 5386 5392 5395 5400 5405 5413 5422 5425 5427 5430